Alula Airport


Codes: HCMA/ALU
Name: Alula Airport
City: Alula
Country: Somalia
Elevation: 6 ft.

Photos at Alula Airport


   Photos courtesy of SpottingLog. You can add your own sightings and photos by signing up for a free trial today.



No photos found.

Weather at Alula Airport


Time (UTC)DescriptionTempratureWindCloud coverageVisibilityPressureHumidity
21-Feb-2024 03:00Scattered Clouds24°C4 mph, SE31%10000m1015hPa65%
21-Feb-2024 06:00Scattered Clouds25°C4 mph, E37%10000m1016hPa62%
21-Feb-2024 09:00Few Clouds25°C13 mph, NE15%10000m1014hPa69%
21-Feb-2024 12:00Clear Sky27°C13 mph, NE7%10000m1013hPa69%
21-Feb-2024 15:00Broken Clouds26°C11 mph, NE62%10000m1014hPa75%
21-Feb-2024 18:00Scattered Clouds26°C11 mph, E36%10000m1015hPa76%
21-Feb-2024 21:00Overcast Clouds25°C9 mph, E100%10000m1014hPa77%
22-Feb-2024 00:00Overcast Clouds25°C9 mph, E100%10000m1014hPa78%
22-Feb-2024 03:00Overcast Clouds25°C11 mph, E100%10000m1016hPa77%
22-Feb-2024 06:00Broken Clouds26°C13 mph, E71%10000m1017hPa67%
22-Feb-2024 09:00Clear Sky27°C16 mph, NE5%10000m1015hPa61%
22-Feb-2024 12:00Few Clouds27°C18 mph, NE11%10000m1013hPa63%
22-Feb-2024 15:00Few Clouds26°C16 mph, NE15%10000m1014hPa73%
22-Feb-2024 18:00Scattered Clouds26°C13 mph, E49%10000m1016hPa72%
22-Feb-2024 21:00Broken Clouds26°C11 mph, E75%10000m1015hPa72%
23-Feb-2024 00:00Overcast Clouds25°C9 mph, E87%10000m1014hPa76%
23-Feb-2024 03:00Overcast Clouds25°C11 mph, E100%10000m1016hPa75%
23-Feb-2024 06:00Overcast Clouds27°C13 mph, E99%10000m1018hPa68%
23-Feb-2024 09:00Overcast Clouds27°C16 mph, NE100%10000m1015hPa65%
23-Feb-2024 12:00Overcast Clouds27°C16 mph, NE92%10000m1013hPa65%
23-Feb-2024 15:00Few Clouds26°C13 mph, E17%10000m1014hPa67%
23-Feb-2024 18:00Few Clouds26°C13 mph, E24%10000m1016hPa68%
23-Feb-2024 21:00Overcast Clouds25°C11 mph, E100%10000m1014hPa62%
24-Feb-2024 00:00Overcast Clouds25°C9 mph, E100%10000m1014hPa59%
24-Feb-2024 03:00Overcast Clouds25°C9 mph, E100%10000m1016hPa59%
24-Feb-2024 06:00Overcast Clouds26°C11 mph, E97%10000m1017hPa58%
24-Feb-2024 09:00Broken Clouds27°C13 mph, NE64%10000m1015hPa59%
24-Feb-2024 12:00Broken Clouds27°C13 mph, NE54%10000m1012hPa64%
24-Feb-2024 15:00Clear Sky26°C11 mph, E10%10000m1013hPa68%
24-Feb-2024 18:00Clear Sky26°C11 mph, E10%10000m1015hPa70%
24-Feb-2024 21:00Few Clouds25°C9 mph, E11%10000m1014hPa72%
25-Feb-2024 00:00Few Clouds25°C7 mph, E24%10000m1013hPa70%
25-Feb-2024 03:00Few Clouds25°C9 mph, E13%10000m1014hPa73%
25-Feb-2024 06:00Scattered Clouds26°C9 mph, NE29%10000m1015hPa68%
25-Feb-2024 09:00Broken Clouds26°C11 mph, NE71%10000m1012hPa67%
25-Feb-2024 12:00Broken Clouds27°C16 mph, NE70%10000m1009hPa66%
25-Feb-2024 15:00Few Clouds27°C16 mph, NE19%10000m1010hPa68%
25-Feb-2024 18:00Broken Clouds26°C13 mph, E53%10000m1012hPa71%
25-Feb-2024 21:00Scattered Clouds25°C9 mph, E39%10000m1011hPa72%
26-Feb-2024 00:00Scattered Clouds25°C9 mph, E38%10000m1010hPa74%